(329927) = 2005 MQ52 = 2005 NN78

Discovered at Kitt Peak on 2005-07-11 by Spacewatch.

Orbit

Orbit type: Hilda

Note: WebGL enabled browser required.

epoch2024-03-31.0
epoch JD2460400.5
perihelion date2021-05-13.78388
perihelion JD2459348.28388
argument of perihelion (°)183.15231
ascending node (°)124.38632
inclination (°)3.73919
eccentricity0.2439067
perihelion distance (AU)2.9952377
Tisserand w.r.t. Jupiter3.0
ΔV w.r.t. Earth (km/sec)10.7
semimajor axis (AU)3.9614659
mean anomaly (°)131.53003
mean daily motion (°/day)0.12500290
aphelion distance (AU)4.928
period (years)7.88
P-vector [x]0.60919954
P-vector [y]-0.72614490
P-vector [z]-0.31873107
Q-vector [x]0.79118866
Q-vector [y]0.58381861
Q-vector [z]0.18214371
absolute magnitude15.31
phase slope0.15
uncertainty0
referenceMPEC 2024-E133
observations used262
oppositions12
arc length (days)9267
first opposition used1997
last opposition used2022
residual rms (arc-secs)0.84
perturbers coarse indicatorM-v
perturbers precise indicator003Ek
first observation date used1997-07-31.0
last observation date used2022-12-14.0
computer nameMPCLINUX
JD of orbit computation2456966.705853
perihelion JD uncertainty (days)1.4371E-04
argument of perihelion uncertainty (°)9.6104E-05
ascending node uncertainty (°)9.4021E-05
inclination uncertainty (°)4.4016E-06
eccentricity uncertainty 3.6751E-08
perihelion distance uncertainty (AU)1.4644E-07
Minimum Orbit Intersection Distances (in AU)
for orbit epoch: 2460400.5, reference: E2024-ED3
Mercury2.56239
Venus2.2679
Earth1.98024
Mars1.5963
Jupiter0.3516
Saturn4.19115
Uranus13.6138
Neptune25.2709

Observations

262 total observations over interval: 1997 07 31.28759 – 2022 12 14.247963
These data are available for download (format description).

Date (UT) J2000 RA J2000 Dec Magn Location Ref
1997 07 31.28759 20 40 40.71 -18 38 56.2 19.9 V 691 – Steward Observatory, Kitt Peak-Spacewatch MPS 240739
1997 07 31.31120 20 40 39.72 -18 39 01.2 20.1 V 691 – Steward Observatory, Kitt Peak-Spacewatch MPS 240739
1997 07 31.33669 20 40 38.65 -18 39 06.7 20.0 V 691 – Steward Observatory, Kitt Peak-Spacewatch MPS 240739
2005 06 30.40218 21 25 42.69 -15 17 39.4 20.6 V 691 – Steward Observatory, Kitt Peak-Spacewatch MPS 138492
2005 06 30.41955 21 25 42.44 -15 17 41.8 20.5 V 691 – Steward Observatory, Kitt Peak-Spacewatch MPS 138492
2005 06 30.43682 21 25 42.22 -15 17 44.0 20.9 V 691 – Steward Observatory, Kitt Peak-Spacewatch MPS 138492
2005 07 11.41160 21 22 23.86 -15 47 24.0 20.1 V 691 – Steward Observatory, Kitt Peak-Spacewatch MPS 138070
2005 07 11.42897 21 22 23.41 -15 47 27.5 20.2 V 691 – Steward Observatory, Kitt Peak-Spacewatch MPS 138070
2005 07 11.44970 21 22 22.87 -15 47 31.3 20.3 V 691 – Steward Observatory, Kitt Peak-Spacewatch MPS 138070
2005 07 15.42840 21 20 38.72 -16 00 53.1 19.5 V G96 – Mt. Lemmon Survey MPS 138070
2005 07 15.43371 21 20 38.54 -16 00 54.8 19.9 V G96 – Mt. Lemmon Survey MPS 138070
2005 07 15.43901 21 20 38.40 -16 00 56.0 19.9 V G96 – Mt. Lemmon Survey MPS 138070
2005 07 15.44427 21 20 38.22 -16 00 57.1 19.9 V G96 – Mt. Lemmon Survey MPS 138070
2005 07 27.32423 21 14 08.49 -16 46 32.6 20.4   644 – Palomar Mountain/NEAT MPS 139371
2005 07 27.34793 21 14 07.59 -16 46 38.9 20.3   644 – Palomar Mountain/NEAT MPS 139371
2005 07 27.37535 21 14 06.54 -16 46 45.2 20.0   644 – Palomar Mountain/NEAT MPS 139371
2006 10 03.37318 02 33 56.77 +09 51 44.1 20.5 V G96 – Mt. Lemmon Survey MPS 240739
2006 10 03.37980 02 33 56.52 +09 51 42.9 20.4 V G96 – Mt. Lemmon Survey MPS 240739
2006 10 03.38669 02 33 56.30 +09 51 41.7 20.5 V G96 – Mt. Lemmon Survey MPS 240739
2006 10 03.39319 02 33 56.16 +09 51 40.4 20.3 V G96 – Mt. Lemmon Survey MPS 240739
2006 10 22.20594 02 22 41.51 +08 46 42.2 20.7 V 691 – Steward Observatory, Kitt Peak-Spacewatch MPS 240739
2006 10 22.22329 02 22 40.81 +08 46 38.7 20.5 V 691 – Steward Observatory, Kitt Peak-Spacewatch MPS 240739
2006 10 22.24065 02 22 40.08 +08 46 35.0 20.6 V 691 – Steward Observatory, Kitt Peak-Spacewatch MPS 240739
2006 11 01.22811 02 15 56.48 +08 12 28.0 20.2 V G96 – Mt. Lemmon Survey MPS 240739
2006 11 01.23381 02 15 56.26 +08 12 27.2 20.2 V G96 – Mt. Lemmon Survey MPS 240739
2006 11 01.23956 02 15 56.01 +08 12 25.4 20.0 V G96 – Mt. Lemmon Survey MPS 240739
2006 11 01.24531 02 15 55.76 +08 12 24.5 20.5 V G96 – Mt. Lemmon Survey MPS 240739
2011 03 06.27247 12 25 40.28 +01 31 57.8 21.6 V 691 – Steward Observatory, Kitt Peak-Spacewatch MPS 373421
2011 03 06.29016 12 25 39.74 +01 32 01.6 21.5 V 691 – Steward Observatory, Kitt Peak-Spacewatch MPS 373421
2011 03 06.30784 12 25 39.13 +01 32 05.8 21.6 V 691 – Steward Observatory, Kitt Peak-Spacewatch MPS 373421
2011 03 29.31506 12 12 37.98 +03 07 37.5 21.1 V G96 – Mt. Lemmon Survey MPS 375529
2011 03 29.31914 12 12 37.87 +03 07 38.4 21.2 V G96 – Mt. Lemmon Survey MPS 375529
2011 03 29.32322 12 12 37.65 +03 07 39.6 21.7 V G96 – Mt. Lemmon Survey MPS 375529
2011 03 29.32723 12 12 37.51 +03 07 40.5 21.6 V G96 – Mt. Lemmon Survey MPS 375529
2011 03 29.33693 12 12 37.15 +03 07 43.3 21.4 V G96 – Mt. Lemmon Survey MPS 375529
2011 03 29.34397 12 12 36.93 +03 07 44.6 21.3 V G96 – Mt. Lemmon Survey MPS 375529
2011 03 29.35115 12 12 36.64 +03 07 45.8 21.1 V G96 – Mt. Lemmon Survey MPS 375529
2011 03 29.35828 12 12 36.39 +03 07 47.7 20.9 V G96 – Mt. Lemmon Survey MPS 375529
2012 04 18.39592 15 45 07.84 -14 52 35.6 20.8 V 691 – Steward Observatory, Kitt Peak-Spacewatch MPS 420819
2012 04 18.41370 15 45 07.33 -14 52 33.3 20.6 V 691 – Steward Observatory, Kitt Peak-Spacewatch MPS 420819
2012 04 18.43150 15 45 06.82 -14 52 30.9 20.8 V 691 – Steward Observatory, Kitt Peak-Spacewatch MPS 420819
2012 04 21.30658 15 43 44.25 -14 46 08.2 19.2 H W91 – VHS-VISTA, Cerro Paranal MPS 678683
2012 04 21.30966 15 43 44.15 -14 46 07.9 19.0 H W91 – VHS-VISTA, Cerro Paranal MPS 678683
2012 04 21.31690 15 43 43.93 -14 46 06.7 19.3 J W91 – VHS-VISTA, Cerro Paranal MPS 678683
2012 04 21.31970 15 43 43.84 -14 46 06.4 19.5 J W91 – VHS-VISTA, Cerro Paranal MPS 678683
2012 04 21.32128 15 43 43.79 -14 46 06.2 20.0 Y W91 – VHS-VISTA, Cerro Paranal MPS 678683
2012 04 21.32412 15 43 43.71 -14 46 05.8 19.7 Y W91 – VHS-VISTA, Cerro Paranal MPS 678683
2012 05 20.35248 15 25 16.993 -13 37 38.45 20.5 g F51 – Pan-STARRS 1, Haleakala MPS 424935
2012 05 20.36344 15 25 16.504 -13 37 36.93 20.4 g F51 – Pan-STARRS 1, Haleakala MPS 424935
2012 05 27.24757 15 20 37.57 -13 23 38.2 20.4 V G96 – Mt. Lemmon Survey MPS 425998
2012 05 27.25507 15 20 37.28 -13 23 37.2 20.3 V G96 – Mt. Lemmon Survey MPS 425998
2012 05 27.26260 15 20 36.99 -13 23 36.7 20.1 V G96 – Mt. Lemmon Survey MPS 425998
2012 05 27.27014 15 20 36.70 -13 23 35.6 20.2 V G96 – Mt. Lemmon Survey MPS 425998
2012 06 07.28347 15 13 56.414 -13 06 31.53 20.3 r F51 – Pan-STARRS 1, Haleakala MPS 427279
2012 06 07.29077 15 13 56.165 -13 06 31.02 20.4 r F51 – Pan-STARRS 1, Haleakala MPS 427279
2012 06 11.21512 15 11 53.66 -13 02 25.4 20.3 V G96 – Mt. Lemmon Survey MPS 427279
2012 06 11.22084 15 11 53.44 -13 02 25.0 20.2 V G96 – Mt. Lemmon Survey MPS 427279
2012 06 11.22665 15 11 53.30 -13 02 24.9 20.5 V G96 – Mt. Lemmon Survey MPS 427279
2012 06 11.23249 15 11 53.12 -13 02 24.3 20.0 V G96 – Mt. Lemmon Survey MPS 427279
2012 06 14.21853 15 10 28.77 -13 00 04.2 20.8 V G96 – Mt. Lemmon Survey MPS 427279
2012 06 14.22374 15 10 28.66 -13 00 04.2 20.3 V G96 – Mt. Lemmon Survey MPS 427279
2012 06 14.22899 15 10 28.52 -13 00 03.6 20.4 V G96 – Mt. Lemmon Survey MPS 427279
2012 06 14.23424 15 10 28.30 -13 00 03.8 20.4 V G96 – Mt. Lemmon Survey MPS 427279
2013 08 31.32722 21 18 45.055 -17 33 00.92 20.3 g F51 – Pan-STARRS 1, Haleakala MPS 476102
2013 08 31.39224 21 18 42.919 -17 33 13.72 19.8 r F51 – Pan-STARRS 1, Haleakala MPS 476102
2014 10 02.39897 02 48 27.717 +11 04 37.89 20.5 i F51 – Pan-STARRS 1, Haleakala MPS 538737
2014 10 02.41118 02 48 27.366 +11 04 35.69 20.6 i F51 – Pan-STARRS 1, Haleakala MPS 538737
2014 10 02.42337 02 48 27.031 +11 04 33.66 20.6 i F51 – Pan-STARRS 1, Haleakala MPS 538737
2014 10 02.43556 02 48 26.703 +11 04 31.53 20.5 i F51 – Pan-STARRS 1, Haleakala MPS 538737
2014 10 12.45380 02 43 18.95 +10 33 50.4 20.3 V 691 – Steward Observatory, Kitt Peak-Spacewatch MPS 540350
2014 10 12.47845 02 43 18.03 +10 33 44.6 20.5 V 691 – Steward Observatory, Kitt Peak-Spacewatch MPS 540350
2014 10 12.50299 02 43 17.16 +10 33 40.5 21.0 V 691 – Steward Observatory, Kitt Peak-Spacewatch MPS 540350
2014 10 16.22395 02 41 04.87 +10 21 28.0 20.9 V 691 – Steward Observatory, Kitt Peak-Spacewatch MPS 540350
2014 10 16.24432 02 41 04.11 +10 21 23.9 20.6 V 691 – Steward Observatory, Kitt Peak-Spacewatch MPS 540350
2014 10 16.26468 02 41 03.31 +10 21 19.9 20.6 V 691 – Steward Observatory, Kitt Peak-Spacewatch MPS 540350
2014 10 21.04213 02 38 02.17 +10 05 19.8 20.8   J43 – Oukaimeden Observatory, Marrakech MPS 542088
2014 10 21.05243 02 38 01.67 +10 05 17.8 21.1   J43 – Oukaimeden Observatory, Marrakech MPS 542088
2014 10 21.06274 02 38 01.28 +10 05 16.0 20.4   J43 – Oukaimeden Observatory, Marrakech MPS 542088
2014 10 21.07304 02 38 00.84 +10 05 13.8 20.7   J43 – Oukaimeden Observatory, Marrakech MPS 542088
2014 10 23.26115 02 36 34.83 +09 57 51.6 20.0 r G45 – Space Surveillance Telescope, Atom Site MPS 558335
2014 10 23.27253 02 36 34.38 +09 57 49.9 20.3 r G45 – Space Surveillance Telescope, Atom Site MPS 558335
2014 10 23.28379 02 36 33.95 +09 57 48.0 20.5 r G45 – Space Surveillance Telescope, Atom Site MPS 558335
2014 10 23.29922 02 36 33.33 +09 57 44.8 20.2 r G45 – Space Surveillance Telescope, Atom Site MPS 558335
2014 10 25.37753 02 35 10.07 +09 50 45.4 20.0 V G96 – Mt. Lemmon Survey MPS 544137
2014 10 25.38363 02 35 09.83 +09 50 44.3 19.9 V G96 – Mt. Lemmon Survey MPS 544137
2014 10 25.38972 02 35 09.58 +09 50 43.2 20.0 V G96 – Mt. Lemmon Survey MPS 544137
2014 10 25.39582 02 35 09.33 +09 50 41.9 20.1 V G96 – Mt. Lemmon Survey MPS 544137
2014 10 30.16815 02 31 55.78 +09 34 54.8   691 – Steward Observatory, Kitt Peak-Spacewatch MPS 544137
